www.pogodaiklimat.ru

Погода и климат >> Архив погоды >> Буркина-Фасо >> Dori


ПОГОДА в Dori

  • Прогноз погоды в Dori
  • Монитор погоды в Dori
  • Климат города

АРХИВ ПОГОДЫ в Dori

Время (UTC), дата Ветер
(напр.,м/с)
 
Видим.   Явления Облачность Т
(С)
Тd
(С)
f
(%)
Тe
(С)
Тes
(С)
Комфортность P
(гПа)
Po
(гПа)
Тmin
(С)
Tmax
(С)
R
(мм)
R24
(мм)
S
(см)
00 14.01 штиль 0 10 км 9/0
[Ci sp]
+17.2 +5.9 47 +17 +17 1013.3 981.8
03 14.01 штиль 0 10 км 9/0
[Ci sp]
+14.0 +6.7 61 +14 +14 1013.2 981.7
06 14.01 штиль 0 10 км 9/0
[Ci sp]
+12.2 +5.2 62 +12 +12 1013.7 981.9 +12.1
09 14.01 В 2 10 км 9/0
[Ci sp]
+23.8 -1.3 19 +22 +28 комфорт 1014.9 983.2
12 14.01 В 3 10 км 9/0
[Ci sp]
+28.7 -2.4 13 +26 +36 жарко 1014.2 982.7
15 14.01 ЮВ 3 10 км 9/0
[Ci sp]
+31.1 -2.4 11 +28 +32 жарко 1011.7 980.1
18 14.01 В 1 10 км 9/0
[Ci sp]
+27.7 +0.7 17 +26 +26 жарко 1012.2 980.4 +32.2
21 14.01 штиль 0 10 км 9/0
[Ci sp]
+20.5 +3.0 31 +21 +21 комфорт 1014.3 982.6
00 15.01 штиль 0 10 км 9/0
[Ci sp]
+17.2 +3.7 41 +17 +17 1014.1 982.6
03 15.01 штиль 0 10 км 9/0
[Ci sp]
+14.1 +3.5 49 +14 +14 1012.3 980.8
06 15.01 штиль 0 10 км 9/0
[Ci sp]
+13.5 +0.8 42 +13 +13 1012.9 981.2 +13.3
09 15.01 ЮВ 1 10 км 9/0
[Ci sp]
+22.0 -3.0 19 +21 +28 комфорт 1015.4 983.6
12 15.01 СВ 2 10 км 9/0
[Ci sp]
+29.0 -2.1 13 +26 +38 жарко 1014.2 982.6
15 15.01 СВ 2 10 км 9/0
[Ci sp]
+31.2 -0.3 13 +28 +34 жарко 1011.4 979.9
18 15.01 штиль 0 10 км 9/0
[Ci sp]
+28.0 +7.6 28 +28 +28 жарко 1012.1 980.4 +31.9
21 15.01 СВ 1 10 км 9/0
[Ci sp]
+22.7 +1.7 25 +22 +22 комфорт 1013.7 982.1
00 16.01 штиль 0 10 км 9/0
[Ci sp]
+19.5 +1.9 31 +20 +20 1013.5 982.1
03 16.01 штиль 0 10 км 9/0
[Ci sp]
+16.6 +2.2 38 +17 +17 1012.5 981.1
06 16.01 штиль 0 10 км 9/0
[Ci sp]
+16.3 +2.0 38 +16 +16 1012.9 981.3 +16.3
09 16.01 СВ 2 4000 м пыль 9/0
[Ci sp]
+22.5 +0.2 23 +22 +27 комфорт 1014.8 983.2
12 16.01 В 4 4000 м пыль 9/0
[Ci sp]
+29.7 -0.2 14 +27 +35 жарко 1012.8 981.4
15 16.01 В 2 10 км 9/0
[Ci sp]
+32.1 +3.1 16 +29 +35 жарко 1011.5 980.2
18 16.01 штиль 0 6000 м пыль 9/0
[Ci sp]
+28.4 +9.1 30 +28 +28 жарко 1011.7 980.1 +32.6
21 16.01 штиль 0 6000 м пыль 9/0
[Ci sp]
+23.9 +4.3 28 +24 +24 комфорт 1013.9 982.4
00 17.01 штиль 0 6000 м пыль 9/0
[Ci sp]
+22.5 +1.7 25 +22 +22 комфорт 1013.6 982.4
03 17.01 штиль 0 6000 м пыль 9/0
[Ci sp]
+19.5 +2.9 33 +20 +20 1013.5 982.2
06 17.01 штиль 0 6000 м пыль 9/0
[Ci sp]
+19.2 +0.3 28 +19 +19 1014.2 982.7 +18.7
09 17.01 В 1 6000 м пыль 9/0
[Ci sp]
+23.5 -1.6 19 +22 +29 комфорт 1014.2 982.7
12 17.01 В 1 4000 м пыль 9/0
[Ci sp]
+30.1 -3.9 11 +27 +41 жарко 1013.0 981.8
15 17.01 В 1 4000 м пыль 9/0
[Ci sp]
+32.6 -2.0 11 +29 +36 жарко 1010.2 979.0
18 17.01 штиль 0 4000 м пыль 9/0
[Ci sp]
+28.8 -0.6 15 +28 +28 жарко 1011.1 979.8 +33.1
21 17.01 штиль 0 8000 м пыль 9/0
[Ci sp]
+23.8 +1.8 24 +23 +23 комфорт 1012.9 981.5
00 18.01 штиль 0 10 км 9/0
[Ci sp]
+19.4 +6.5 43 +20 +20 1013.4 982.0
03 18.01 штиль 0 10 км 9/0
[Ci sp]
+17.7 +3.3 38 +18 +18 1011.6 980.4
06 18.01 штиль 0 10 км 9/0
[Ci sp]
+18.2 -2.4 25 +18 +18 1012.1 980.6 +16.7
09 18.01 штиль 0 10 км 9/0
[Ci sp]
+25.5 -2.0 16 +23 +31 комфорт 1014.1 982.7
12 18.01 В 2 10 км 9/0
[Ci sp]
+32.0 -5.6 8 +28 +40 жарко 1012.7 981.5
15 18.01 СВ 2 10 км 9/0
[Ci sp]
+34.2 -2.7 9 +30 +36 жарко 1010.6 979.5
18 18.01 В 1 10 км 9/0
[Ci sp]
+30.1 -1.9 12 +27 +27 жарко 1011.0 979.6 +34.7
21 18.01 штиль 0 10 км 9/0
[Ci sp]
+22.1 +3.9 30 +22 +22 комфорт 1012.5 981.1
00 19.01 штиль 0 10 км 9/0
[Ci sp]
+18.3 +5.9 44 +18 +18 1012.6 981.4
03 19.01 штиль 0 10 км 9/0
[Ci sp]
+14.7 +10.4 75 +14 +14 1012.0 980.6
06 19.01 штиль 0 10 км 9/0
[Ci sp]
+13.6 +3.3 50 +13 +13 1012.4 980.8 +13.1
09 19.01 В 1 10 км 9/0
[Ci sp]
+24.4 -4.5 14 +22 +29 комфорт 1013.4 981.9
12 19.01 СВ 2 10 км 9/0
[Ci sp]
+31.4 -3.6 10 +28 +40 жарко 1012.5 981.2
15 19.01 В 2 10 км 9/0
[Ci sp]
+33.0 -3.9 9 +29 +35 жарко 1011.2 979.8
18 19.01 штиль 0 10 км 9/0
[Ci sp]
+29.0 +3.9 20 +27 +27 жарко 1011.6 979.9 +32.9
21 19.01 штиль 0 10 км 9/0
[Ci sp]
+21.5 +5.6 35 +22 +22 комфорт 1012.7 981.2
00 20.01 штиль 0 10 км 9/0
[Ci sp]
+17.9 +5.9 45 +18 +18 1012.2 980.9
03 20.01 штиль 0 10 км 9/0
[Ci sp]
+15.0 +3.0 44 +15 +15 1011.4 980.1
06 20.01 штиль 0 10 км 9/0
[Ci sp]
+13.2 +2.5 48 +13 +13 1012.2 980.5 +13.2
09 20.01 СВ 1 10 км 9/0
[Ci sp]
+23.8 -0.9 19 +22 +29 комфорт 1013.3 981.8
12 20.01 СВ 1 10 км 9/0
[Ci sp]
+32.4 -1.6 11 +29 +44 жарко 1011.8 980.5
15 20.01 С 1 10 км 9/0
[Ci sp]
+33.6 -3.5 9 +30 +36 жарко 1009.9 978.6
18 20.01 штиль 0 10 км 9/0
[Ci sp]
+29.2 +6.2 23 +28 +28 жарко 1011.5 979.8 +33.6
21 20.01 штиль 0 10 км 9/0
[Ci sp]
+24.0 -0.9 19 +23 +23 комфорт 1013.5 982.1

 

Местоположение метеостанции Dori (Буркина-Фасо): широта 14.03 долгота -0.03 высота над уровнем моря 277 м.

В архиве по умолчанию представлена погода в Dori за последнюю неделю. Архивные данные за месяц целиком и за предыдущие месяцы, начиная с января 2011 года, Вы можете получить, выбрав интересующий диапазон дат из раскрывающегося списка и нажав кнопку "Ввод!".

Внимание! Время в таблицах - всемирное. Для получения местного времени необходимо прибавить поправку, которая в Dori равна 0 ч.

Смотрите также архив погоды в соседних городах и на ближайших метеорологических станциях:

Погода в Tillabery (Нигер) (161 км)
Погода в Fada N`Gourma (Буркина-Фасо) (227 км)
Погода в Niamey (Нигер) (245 км)
Погода в Ouagadougou (Буркина-Фасо) (247 км)
Погода в Ouahigouya (Буркина-Фасо) (263 км)
Погода в Po (Буркина-Фасо) (343 км)
Погода в Dapaon (Того) (354 км)
Погода в Navrongo (Гана) (367 км)
Погода в Dosso (Нигер) (367 км)
Погода в Boromo (Буркина-Фасо) (404 км)

Пояснения к столбцам:

Ветер - указаны скорость ветра в м/с - средняя за 10 мин, порывы в срок и между сроками (в фигурных скобках) и направление, откуда дует ветер: С - северный, СВ - северо-восточный, В - восточный, ЮВ - юго-восточный, Ю - южный, ЮЗ - юго-западный, З - западный, СЗ - северо-западный.
Видимость - горизонтальная дальность видимости в метрах или километрах. При видимости от 1 до 10 км при отсутствии осадков обычно наблюдается дымка, при ухудшении видимости до 1 км и менее - туман. В сухую погоду видимость может ухудшаться дымом, пылью или мглою.
Явления - указаны атмосферные явления, наблюдавшиеся в срок или в последний час перед сроком; фигурными скобками обозначены явления, наблюдавшиеся между сроками (за 1-3 часа до срока); квадратными скобками обозначены град или гололедные отложения с указанием их диаметра в мм.
Облачность - указаны через наклонную черту общая и нижняя облачность в баллах и высота нижней границы облаков в метрах; квадратными скобками обозначены формы облаков: Ci - перистые, Cs - перисто-слоистые, Cc - перисто-кучевые, Ac - высококучевые, As - высокослоистые, Sc - слоисто-кучевые, Ns - слоисто-дождевые, Cu - кучевые, Cb - кучево-дождевые. Подробнее классификацию облаков см. в Атласе облаков (PDF).
T - Температура воздуха - температура, измеренная на высоте 2 м над землей.
Td - Температура точки росы - температура, при понижении до которой содержащийся в воздухе водяной пар достигнет насыщения.
f - Относительная влажность воздуха - влажноcть воздуха, измеренная на высоте 2 м над землей.
Te - Эффективная температура - температура, которую ощущает одетый по сезону человек в тени. Характеристика душности погоды. При расчете учитывается влияние влажности воздуха и скорости ветра на теплоощущения человека.
Tes - Эффективная температура на солнце - температура, которую ощущает человек, с поправкой на солнечный нагрев. Характеристика знойности погоды. Зависит от высоты солнца над горизонтом, облачности и скорости ветра. Ночью, в пасмурную погоду, а также при ветре 12 м/с и более поправка равна нулю.
P - Атмосферное давление - приведенное к уровню моря атмосферное давление.
Po - Атмосферное давление - измеренное на уровне метеостанции атмосферное давление.
Tmin - Минимальная температура - минимум температуры воздуха на высоте 2 м над землей.
Tmax - Максимальная температура - максимум температуры воздуха на высоте 2 м над землей.
R - Количество осадков - Количество выпавших осадков за период времени, мм. При наведении курсора мыши на число - период времени, за который выпало указанное количество осадков.
R24 - Количество осадков - Количество выпавших осадков за 24 часа, мм.
S - Снежный покров - Высота снежного покрова, см. При наведении курсора мыши на число - состояние снежного покрова и степень покрытия местности в баллах.